Location: Bettgenhausen
(50.6463°N, 7.5681°E)
Time: 11:00:19
(UTC+00:00)

STARLINK-36 - Pass Details

Date: 27 February 2020
Orbit: 529 x 530 km, 53.0° (Epoch: 05 April)

Event Time Altitude Azimuth Distance (km) Brightness Sun altitude
Rises 17:43:09 0° 265° (W) 2,666 10.0 -6.5°
Reaches altitude 10° 17:45:23 10° 268° (W) 1,778 8.0 -6.9°
Maximum altitude 17:49:23 66° 351° (N) 584 3.8 -7.5°
Enters shadow 17:53:24 10° 74° (ENE) 1,776 5.6 -8.2°
